Retour au catalogue

STARLINK-37000

ActifCommunicationsVLEO
NORAD 68063·PAYLOAD·🇺🇸 United States

Lancé Mar 2, 2026 depuis Vandenberg Space Force Base

Loading…

Prochains Passages (prochaines 24 heures)

TLE

FraisSource: CelesTrak SupGP

Époque: Sep 15, 2026, 03:19 UTC

1 68063C 26041Z   26258.13868056 -.00045036  00000+0 -13304-2 0  2586
2 68063  53.1581 245.1060 0001365  87.5250 193.4883 15.34418110    13

Suivez STARLINK-37000 en temps réel avec AllMySat

Download on the App Store